This demonstration page uses our WeatherBlox Daily Observations layout. Learn more.

Left ArrowRight Arrow

Hourly Observations for May 27, 2019

Temp ( °F °C ) Dew Point ( °F °C ) Humidity (%) Winds ( mph kmh ) Pressure ( in mb ) Visibility ( mi km ) Precip ( " mm )
12:15 am 00:15 Cloudy 60 15.6 58 14.6 94 94 N 13 20 29.81 1010 10 16 N/A
12:35 am 00:35 Cloudy 60 15.7 58 14.7 94 94 NNE 13 20 29.81 1010 4 6 0.13 3.30
12:55 am 00:55 Cloudy with Strong Thunderstorms 59 15.1 59 14.8 98 98 N 17 28 29.78 1008 7 11 0.22 5.59
1:15 am 01:15 Cloudy with Strong Thunderstorms 59 15.1 59 14.9 99 99 NE 16 26 29.82 1010 4 6 0.17 4.32
1:35 am 01:35 Cloudy with Nearby Thunderstorms 59 14.9 59 14.9 100 100 NE 13 20 29.79 1009 5 8 0.39 9.91
1:55 am 01:55 Cloudy with Nearby Thunderstorms 59 14.9 59 14.9 100 100 NE 12 19 29.78 1008 7 11 0.43 10.92
2:15 am 02:15 Cloudy with Nearby Thunderstorms 59 15 59 15 100 100 ENE 10 17 29.77 1008 5 8 0.06 1.52
2:35 am 02:35 Cloudy with Rain 58 14.7 58 14.7 100 100 ENE 13 20 29.72 1007 7 11 0.14 3.56
2:55 am 02:55 Cloudy with Light Rain 58 14.6 58 14.6 100 100 NE 21 33 29.66 1005 10 16 0.18 4.57
3:15 am 03:15 Cloudy 58 14.6 58 14.6 100 100 NE 14 22 29.67 1005 10 16 N/A
3:35 am 03:35 Cloudy with Drizzle 58 14.7 58 14.7 100 100 ENE 9 15 29.68 1005 10 16 N/A
3:55 am 03:55 Cloudy with Drizzle 58 14.6 58 14.6 100 100 E 9 15 29.67 1005 10 16 N/A
4:15 am 04:15 Cloudy 58 14.6 58 14.6 100 100 SE 7 11 29.69 1006 10 16 N/A
4:35 am 04:35 Cloudy with Rain 58 14.7 58 14.7 100 100 N N/A 29.71 1006 7 11 0.02 0.51
4:55 am 04:55 Cloudy with Light Rain 58 14.5 58 14.5 100 100 N 3 6 29.71 1006 10 16 0.05 1.27
5:15 am 05:15 Cloudy with Light Rain 58 14.5 58 14.5 100 100 N N/A 29.73 1007 10 16 0.01 0.25
5:35 am 05:35 Cloudy with Rain 58 14.5 58 14.5 100 100 N N/A 29.73 1007 7 11 0.03 0.76
5:55 am 05:55 Cloudy with Rain 58 14.5 58 14.5 100 100 SSE 3 6 29.73 1007 10 16 0.05 1.27
6:15 am 06:15 Cloudy with Drizzle 58 14.5 58 14.5 100 100 S 5 7 29.73 1007 10 16 N/A
6:35 am 06:35 Mostly Cloudy 57 14.1 57 14.1 100 100 N N/A 29.73 1007 10 16 N/A
6:55 am 06:55 Sunny 57 13.7 57 13.7 100 100 SE 3 6 29.72 1006 10 16 N/A
7:15 am 07:15 Sunny 58 14.2 58 14.2 100 100 SSE 6 9 29.72 1006 10 16 N/A
7:35 am 07:35 Sunny 58 14.6 58 14.6 100 100 SSE 10 17 29.72 1007 10 16 N/A
7:55 am 07:55 Partly Cloudy 60 15.3 60 15.3 100 100 SSE 5 7 29.74 1007 10 16 N/A
8:15 am 08:15 Mostly Cloudy 60 15.6 60 15.5 99 99 SSE 6 9 29.74 1007 10 16 N/A
8:35 am 08:35 Mostly Cloudy 61 16.3 60 15.7 96 96 N N/A 29.73 1007 10 16 N/A
8:55 am 08:55 Partly Cloudy 62 16.5 60 15.3 93 93 N N/A 29.74 1007 10 16 N/A
9:15 am 09:15 Cloudy 62 16.6 60 15.3 92 92 N N/A 29.74 1007 10 16 N/A
9:35 am 09:35 Cloudy 62 16.6 60 15.4 93 93 NW 5 7 29.74 1007 10 16 N/A
9:55 am 09:55 Mostly Cloudy 64 17.5 61 16.1 92 92 N N/A 29.71 1006 10 16 N/A
10:15 am 10:15 Partly Cloudy 64 17.7 60 15.7 88 88 N N/A 29.71 1006 10 16 N/A
10:35 am 10:35 Partly Cloudy 65 18.3 61 16 87 87 N N/A 29.69 1005 10 16 N/A
10:55 am 10:55 Partly Cloudy 66 19.1 61 16.2 83 83 N N/A 29.69 1005 10 16 N/A
11:15 am 11:15 Mostly Cloudy 67 19.3 60 15.7 80 80 N N/A 29.69 1006 10 16 N/A
11:35 am 11:35 Mostly Cloudy 68 19.8 62 16.5 81 81 ENE 3 6 29.69 1005 10 16 N/A
11:55 am 11:55 Mostly Cloudy 67 19.5 61 16.2 81 81 N N/A 29.69 1005 10 16 N/A
12:15 pm 12:15 Mostly Cloudy 69 20.5 63 17 80 80 N N/A 29.68 1005 10 16 N/A
12:35 pm 12:35 Mostly Cloudy 68 20.1 62 16.6 80 80 NNE 6 9 29.70 1006 10 16 N/A
12:55 pm 12:55 Partly Cloudy 69 20.3 61 16.1 77 77 N N/A 29.69 1005 10 16 N/A
1:15 pm 13:15 Sunny 70 21 62 16.8 77 77 NNE 6 9 29.67 1005 10 16 N/A
1:35 pm 13:35 Partly Cloudy 71 21.5 63 17.4 78 78 NE 6 9 29.68 1005 10 16 N/A
1:55 pm 13:55 Cloudy 71 21.6 63 17.3 77 77 NNE 8 13 29.66 1005 10 16 N/A
2:15 pm 14:15 Mostly Cloudy 70 20.9 62 16.8 78 78 NNE 6 9 29.67 1005 10 16 N/A
2:35 pm 14:35 Mostly Cloudy 71 21.6 63 17.1 76 76 NNE 10 17 29.65 1004 10 16 N/A
2:55 pm 14:55 Mostly Cloudy 71 21.8 62 16.5 72 72 NE 5 7 29.65 1004 10 16 N/A
3:15 pm 15:15 Mostly Cloudy 72 22.1 63 17.1 73 73 NE 6 9 29.65 1004 10 16 N/A
3:35 pm 15:35 Mostly Cloudy 71 21.6 61 16.3 72 72 E 5 7 29.65 1004 10 16 N/A
3:55 pm 15:55 Partly Cloudy 72 22.4 63 17.2 73 73 NE 10 17 29.64 1004 10 16 N/A
4:15 pm 16:15 Partly Cloudy 73 22.9 64 17.6 72 72 ENE 8 13 29.62 1003 10 16 N/A
4:35 pm 16:35 Partly Cloudy 73 22.7 63 17.1 71 71 E 12 19 29.62 1003 10 16 N/A
4:55 pm 16:55 Mostly Cloudy 72 22.4 62 16.8 71 71 E 12 19 29.61 1003 10 16 N/A
5:15 pm 17:15 Mostly Cloudy 73 22.9 63 17 69 69 E 14 22 29.59 1002 10 16 N/A
5:35 pm 17:35 Mostly Cloudy 74 23.1 63 17.3 70 70 E 16 26 29.58 1002 10 16 N/A
5:55 pm 17:55 Partly Cloudy 73 22.8 62 16.6 68 68 ESE 16 26 29.59 1002 10 16 N/A
6:15 pm 18:15 Partly Cloudy 73 22.8 63 17 70 70 E 15 24 29.59 1002 10 16 N/A
6:35 pm 18:35 Partly Cloudy 73 23 63 17 69 69 ESE 16 26 29.58 1002 10 16 N/A
6:55 pm 18:55 Partly Cloudy 72 22.3 63 17.1 73 73 E 15 24 29.58 1002 10 16 N/A
7:15 pm 19:15 Partly Cloudy 72 22 63 17.2 74 74 E 15 24 29.58 1002 10 16 N/A
7:35 pm 19:35 Partly Cloudy 72 22.2 64 17.6 75 75 ESE 14 22 29.59 1002 10 16 N/A
7:55 pm 19:55 Mostly Cloudy 71 21.7 64 17.8 79 79 E 12 19 29.59 1002 10 16 N/A
8:15 pm 20:15 Partly Cloudy 70 21.1 64 17.8 82 82 E 10 17 29.58 1002 10 16 N/A
8:35 pm 20:35 Partly Cloudy 69 20.5 64 17.8 85 85 ENE 10 17 29.57 1001 10 16 N/A
8:55 pm 20:55 Mostly Cloudy 69 20.5 64 18 86 86 ENE 13 20 29.58 1002 10 16 N/A
9:15 pm 21:15 Cloudy 69 20.5 64 18 86 86 ENE 15 24 29.57 1001 10 16 N/A
9:35 pm 21:35 Mostly Cloudy 68 20 64 17.7 87 87 NE 12 19 29.58 1002 10 16 N/A
9:55 pm 21:55 Mostly Cloudy with Light Rain 66 19.1 63 17.3 89 89 ENE 17 28 29.61 1003 10 16 N/A
10:15 pm 22:15 Partly Cloudy 65 18.6 64 18 96 96 E 16 26 29.61 1003 10 16 N/A
10:35 pm 22:35 Partly Cloudy 65 18.6 64 17.5 93 93 ENE 18 30 29.60 1002 10 16 N/A
10:55 pm 22:55 Partly Cloudy 65 18.6 64 17.5 93 93 E 17 28 29.60 1002 10 16 N/A
11:15 pm 23:15 Mostly Cloudy with Light Rain 65 18.5 64 17.7 95 95 ENE 18 30 29.60 1002 10 16 N/A
11:35 pm 23:35 Cloudy with Nearby Thunderstorms 64 17.9 63 17.4 97 97 E 20 31 29.61 1003 10 16 N/A
11:55 pm 23:55 Cloudy 63 17.1 62 16.6 97 97 ENE 28 44 29.60 1002 10 16 N/A

Powered by AerisWeather